Date String (YYYY-MM-DD hh:mm:ss) UTC,Instrument flags,Ambient pressure (hPa),Sample flow (lpm),Bypass flow (lpm),Sample temperature (°C),Ambient temperature (°C),ASC tube jacket temperature (°C),LED temperature (°C),Box temperature (°C),Sample RH (%),Span deviation,Mass concentration (μg/m³),Mass concentration (μg/m³),Mass concentration (μg/m³)
DateTimeUTC,F1_M11,P_M11,Q1_M11,Q2_M11,T1_M11,T2_M11,T3_M11,T4_M11,T5_M11,U1_M11,ZSPAN_M11,X0_M11,X2_M11,X1_M11
2022-05-01 10:00:00,,0825.6,5.00,0.00,26.9,25.9,00.0,35.9,28.6,11.9,0000.0,0011.73,0004.44,0003.54
2022-05-01 10:01:00,,0825.6,4.99,0.00,26.9,25.9,00.0,35.9,28.6,11.8,0000.0,0012.27,0004.46,0003.53
2022-05-01 10:02:00,,0825.6,5.01,0.00,26.8,25.9,00.0,35.9,28.6,11.9,0000.0,0012.04,0004.49,0003.52
2022-05-01 10:03:00,,0825.6,5.00,0.00,26.8,25.9,00.0,35.9,28.5,12.1,0000.0,0011.52,0004.48,0003.52
2022-05-01 10:04:00,,0825.6,4.99,0.00,26.8,25.9,00.0,35.9,28.6,11.9,0000.0,0011.12,0004.48,0003.53
2022-05-01 10:05:00,,0825.5,5.01,0.00,26.8,25.8,00.0,35.9,28.6,11.7,0000.0,0010.98,0004.51,0003.53
2022-05-01 10:06:00,,0825.6,5.00,0.00,26.8,25.8,00.0,35.8,28.6,11.7,0000.0,0010.79,0004.54,0003.52
2022-05-01 10:07:00,,0825.6,4.99,0.00,26.8,25.8,00.0,35.8,28.5,11.7,0000.0,0010.47,0004.62,0003.51
2022-05-01 10:08:00,,0825.6,5.01,0.00,26.8,25.8,00.0,35.8,28.5,11.7,0000.0,0009.93,0004.58,0003.51
2022-05-01 10:09:00,,0825.6,5.00,0.00,26.8,25.8,00.0,35.8,28.5,11.5,0000.0,0010.06,0004.62,0003.51
2022-05-01 10:10:00,,0825.6,4.99,0.00,26.8,25.8,00.0,35.8,28.5,11.6,0000.0,0010.16,0004.65,0003.51
2022-05-01 10:11:00,,0825.6,5.00,0.00,26.8,25.7,00.0,35.8,28.5,11.7,0000.0,0009.95,0004.62,0003.52
2022-05-01 10:12:00,,0825.6,5.01,0.00,26.8,25.7,00.0,35.8,28.5,11.8,0000.0,0009.34,0004.60,0003.52
2022-05-01 10:13:00,,0825.5,5.00,0.00,26.7,25.7,00.0,35.8,28.5,11.8,0000.0,0009.17,0004.57,0003.52
2022-05-01 10:14:00,,0825.5,4.99,0.00,26.7,25.7,00.0,35.8,28.5,11.8,0000.0,0009.11,0004.61,0003.53
2022-05-01 10:15:00,,0825.5,5.02,0.00,26.7,25.7,00.0,35.8,28.4,11.8,0000.0,0009.04,0004.57,0003.52
2022-05-01 10:16:00,,0825.5,5.00,0.00,26.7,25.7,00.0,35.7,28.4,11.8,0000.0,0009.40,0004.55,0003.51
2022-05-01 10:17:00,,0825.5,5.00,0.00,26.7,25.7,00.0,35.7,28.4,11.8,0000.0,0010.26,0004.55,0003.51
2022-05-01 10:18:00,,0825.5,4.99,0.00,26.7,25.6,00.0,35.7,28.4,11.7,0000.0,0010.11,0004.50,0003.52
2022-05-01 10:19:00,,0825.5,5.00,0.00,26.6,25.6,00.0,35.7,28.4,11.8,0000.0,0010.04,0004.47,0003.52
2022-05-01 10:20:00,,0825.5,4.99,0.00,26.6,25.6,00.0,35.7,28.3,11.9,0000.0,0009.99,0004.47,0003.53
2022-05-01 10:21:00,,0825.5,4.99,0.00,26.6,25.6,00.0,35.7,28.3,11.7,0000.0,0010.69,0004.48,0003.54
2022-05-01 10:22:00,,0825.5,4.99,0.00,26.6,25.6,00.0,35.7,28.3,11.7,0000.0,0010.97,0004.49,0003.54
2022-05-01 10:23:00,,0825.4,5.01,0.00,26.6,25.6,00.0,35.7,28.3,11.7,0000.0,0011.00,0004.50,0003.54
2022-05-01 10:24:00,,0825.4,4.99,0.00,26.6,25.5,00.0,35.6,28.3,11.7,0000.0,0011.30,0004.52,0003.54
2022-05-01 10:25:00,,0825.4,5.00,0.00,26.6,25.5,00.0,35.6,28.3,11.6,0000.0,0011.45,0004.53,0003.54
2022-05-01 10:26:00,,0825.5,5.02,0.00,26.5,25.5,00.0,35.6,28.2,11.6,0000.0,0011.45,0004.54,0003.54
2022-05-01 10:27:00,,0825.4,4.99,0.00,26.5,25.5,00.0,35.6,28.2,11.6,0000.0,0011.34,0004.58,0003.54
2022-05-01 10:28:00,,0825.4,5.00,0.00,26.5,25.5,00.0,35.6,28.3,11.6,0000.0,0010.37,0004.56,0003.53
2022-05-01 10:29:00,,0825.4,5.01,0.00,26.5,25.5,00.0,35.6,28.2,11.6,0000.0,0010.41,0004.57,0003.52
2022-05-01 10:30:00,,0825.4,4.99,0.00,26.5,25.5,00.0,35.6,28.2,11.7,0000.0,0010.46,0004.56,0003.51
2022-05-01 10:31:00,,0825.4,5.00,0.00,26.5,25.5,00.0,35.5,28.2,11.7,0000.0,0010.41,0004.53,0003.50
2022-05-01 10:32:00,,0825.4,5.01,0.00,26.5,25.5,00.0,35.5,28.2,11.6,0000.0,0009.91,0004.52,0003.49
2022-05-01 10:33:00,,0825.4,5.00,0.00,26.5,25.5,00.0,35.5,28.2,11.6,0000.0,0010.12,0004.55,0003.47
2022-05-01 10:34:00,,0825.3,5.00,0.00,26.4,25.4,00.0,35.5,28.2,11.7,0000.0,0010.69,0004.52,0003.46
2022-05-01 10:35:00,,0825.3,4.99,0.00,26.4,25.4,00.0,35.5,28.2,11.9,0000.0,0010.38,0004.50,0003.46
2022-05-01 10:36:00,,0825.4,5.00,0.00,26.4,25.4,00.0,35.5,28.1,11.9,0000.0,0010.50,0004.50,0003.45
2022-05-01 10:37:00,,0825.4,5.01,0.00,26.4,25.4,00.0,35.5,28.2,11.7,0000.0,0010.53,0004.47,0003.46
2022-05-01 10:38:00,,0825.4,5.00,0.00,26.4,25.4,00.0,35.5,28.1,11.7,0000.0,0010.44,0004.43,0003.46
2022-05-01 10:39:00,,0825.4,5.00,0.00,26.4,25.4,00.0,35.4,28.2,11.9,0000.0,0010.44,0004.43,0003.47
2022-05-01 10:40:00,,0825.4,4.99,0.00,26.4,25.4,00.0,35.4,28.1,12.0,0000.0,0010.47,0004.45,0003.47
2022-05-01 10:41:00,,0825.4,5.01,0.00,26.4,25.4,00.0,35.4,28.1,12.0,0000.0,0010.70,0004.47,0003.48
2022-05-01 10:42:00,,0825.4,5.00,0.00,26.4,25.4,00.0,35.4,28.1,11.9,0000.0,0011.20,0004.49,0003.48
2022-05-01 10:43:00,,0825.4,4.99,0.00,26.4,25.4,00.0,35.4,28.1,12.1,0000.0,0011.05,0004.45,0003.47
2022-05-01 10:44:00,,0825.4,5.02,0.00,26.3,25.4,00.0,35.4,28.1,12.1,0000.0,0010.50,0004.41,0003.48
2022-05-01 10:45:00,,0825.4,5.01,0.00,26.3,25.4,00.0,35.4,28.0,12.2,0000.0,0009.88,0004.41,0003.49
2022-05-01 10:46:00,,0825.4,4.99,0.00,26.3,25.3,00.0,35.4,28.0,12.3,0000.0,0009.64,0004.41,0003.50
2022-05-01 10:47:00,,0825.4,5.01,0.00,26.3,25.3,00.0,35.4,28.0,12.3,0000.0,0009.36,0004.39,0003.49
2022-05-01 10:48:00,,0825.4,4.99,0.00,26.3,25.3,00.0,35.4,28.0,12.4,0000.0,0009.38,0004.43,0003.49
2022-05-01 10:49:00,,0825.3,4.99,0.00,26.3,25.3,00.0,35.3,28.1,12.4,0000.0,0009.35,0004.43,0003.49
2022-05-01 10:50:00,,0825.3,5.01,0.00,26.3,25.3,00.0,35.3,28.1,12.2,0000.0,0009.27,0004.39,0003.48
2022-05-01 10:51:00,,0825.3,5.00,0.00,26.3,25.3,00.0,35.3,28.0,12.1,0000.0,0009.18,0004.38,0003.49
2022-05-01 10:52:00,,0825.3,4.98,0.00,26.3,25.3,00.0,35.3,28.0,12.1,0000.0,0009.23,0004.35,0003.50
2022-05-01 10:53:00,,0825.4,5.01,0.00,26.3,25.3,00.0,35.3,28.0,12.0,0000.0,0009.50,0004.36,0003.50
2022-05-01 10:54:00,,0825.4,5.00,0.00,26.3,25.2,00.0,35.3,27.9,12.0,0000.0,0009.56,0004.42,0003.51
2022-05-01 10:55:00,,0825.3,4.99,0.00,26.2,25.2,00.0,35.3,27.9,12.1,0000.0,0009.49,0004.37,0003.50
2022-05-01 10:56:00,,0825.3,5.00,0.00,26.2,25.2,00.0,35.3,27.9,12.0,0000.0,0009.94,0004.38,0003.50
2022-05-01 10:57:00,,0825.3,5.02,0.00,26.2,25.2,00.0,35.3,28.0,12.1,0000.0,0010.04,0004.40,0003.49
2022-05-01 10:58:00,,0825.3,4.99,0.00,26.2,25.2,00.0,35.3,28.0,12.1,0000.0,0010.12,0004.42,0003.49
2022-05-01 10:59:00,,0825.3,5.01,0.00,26.2,25.2,00.0,35.2,27.9,12.1,0000.0,0010.07,0004.43,0003.49
